Temp
5 5 5 7 8 9 8 9 7 8 8 8 8 8 8 8 8 7 7 8 7 8 8 7 8 8 9 10 11 12 15 15 17 18 20 19 19 16 13 13 13 10 11 10 9
9 8 8 9 9 9 9 9 8 8 8 8 8 8 7 7 6 6 7 7 7 8 7 8 9 8 10 11 11 13 14 15 18 19 19 18 17 17 14 15 12 8 9 8 9
9 9 9 8 8 9 9 9 8 7 8 7 7 7 7 7 6 8 7 7 7 8 7 7 9 9 11 11 12 13 13 17 17 15 14 16 15 15 15 17 15 12 7 6 6
8 8 8 8 7 6 6 5 5 4 7 7 7 7 7 5 10 6 7 7 7 7 7 7 8 9 11 12 12 12 14 15 14 11 12 14 14 14 14 15 11 11 9 6 4
8 8 7 7 7 6 6 6 5 4 7 6 6 6 5 6 8 7 7 7 7 7 6 7 9 10 11 13 13 13 14 12 13 10 10 10 12 13 14 12 9 8 7 5 4
7 7 8 8 8 8 7 7 7 6 6 6 6 6 5 9 7 6 6 6 5 6 6 7 9 10 10 12 12 12 13 13 11 11 10 10 12 10 13 9 8 8 6 5 4
7 7 8 8 8 8 7 7 7 7 6 6 6 5 5 7 6 6 6 6 6 5 6 7 7 8 10 11 10 10 11 11 11 11 11 9 11 10 11 8 9 8 7 6 4
7 8 8 8 8 8 8 8 7 7 6 6 5 4 8 6 5 5 5 5 5 6 5 5 6 8 8 8 9 10 11 11 13 11 10 9 12 10 7 8 10 8 7 5 4
8 8 8 8 8 8 8 7 7 6 6 6 5 5 8 6 5 5 5 5 5 5 5 5 6 8 7 9 10 10 11 12 10 10 11 10 12 8 6 6 9 8 7 5 4
8 8 8 8 8 8 7 7 6 6 5 5 5 6 6 6 5 5 5 5 5 5 5 6 7 9 9 9 8 10 10 12 12 9 8 10 10 10 7 7 7 7 7 6 4
7 8 8 8 8 8 7 6 6 6 6 5 6 6 6 5 5 5 5 5 6 6 8 8 8 8 10 10 8 7 8 9 10 7 8 10 11 12 11 8 8 6 6 6 5
7 7 8 8 7 7 7 5 5 4 7 5 5 5 5 5 6 5 4 6 7 8 8 7 8 6 6 6 6 7 8 9 9 6 7 9 8 9 7 3 3 3 5 5 5
8 7 7 8 7 7 6 5 4 4 7 6 5 5 5 4 5 5 4 6 8 8 8 8 5 5 5 5 5 6 6 8 8 6 7 7 8 9 3 2 2 1 1 2 3
8 7 7 7 6 6 4 4 4 3 8 7 7 5 5 5 6 3 3 4 7 7 6 6 4 4 5 5 4 6 4 3 4 5 7 4 8 7 5 3 0 -1 -1 -1 -0
8 7 6 7 6 4 4 4 3 3 7 6 6 5 5 6 5 5 3 5 5 5 5 3 3 4 4 1 2 3 3 4 3 4 4 6 6 5 5 3 -1 -2 -2 -3 -3
8 7 6 6 4 5 4 3 3 6 5 5 6 5 6 5 5 5 4 3 3 5 4 2 1 1 1 1 1 2 3 3 3 3 3 7 6 2 1 -2 -2 -2 -3 -4 -4
8 6 6 6 4 5 4 2 7 6 5 4 3 4 4 4 4 4 3 1 1 2 4 3 1 0 -0 2 2 1 2 4 3 3 5 1 3 -1 -2 -2 -2 -3 -4 -4 -5
7 6 6 5 5 5 4 7 5 4 3 4 3 4 3 3 3 3 3 2 1 1 2 3 1 -1 -3 -2 -0 1 1 4 5 5 3 1 3 -2 -2 -2 -2 -3 -4 -4 -5
6 6 5 5 5 5 5 4 2 1 1 1 3 3 3 3 2 2 -0 -1 -0 -0 -1 1 1 -2 -3 -3 -2 -0 1 -1 2 1 4 2 -2 -2 -2 -2 -2 -3 -4 -4 -5
6 5 5 5 5 6 6 2 1 0 0 1 1 2 2 2 1 1 -1 -1 -1 -0 -0 -1 0 -1 -2 -2 -2 -2 -2 1 1 2 3 1 1 -2 -4 -4 -3 -4 -5 -5 -5
7 7 5 5 4 5 3 1 1 -0 -1 0 1 1 1 -0 1 -0 -2 -2 -1 -1 -1 -0 -1 -1 -1 -3 -3 -0 0 -0 -1 1 2 3 -2 -4 -5 -5 -5 -5 -5 -6 -5
6 8 4 4 5 4 1 0 -1 -0 -0 0 0 -0 -1 -1 -1 -1 -2 -2 -2 -2 -1 -1 -2 -1 -3 -6 -6 -4 -2 -1 -0 0 1 1 -3 -5 -5 -5 -6 -6 -6 -6 -6
4 3 3 4 4 2 1 -1 -1 -1 -1 -1 -1 -1 -1 -2 -2 -1 -1 -2 -2 -2 -2 -2 -2 -1 -3 -4 -4 -3 -3 -4 -4 -2 -0 -1 -4 -5 -5 -5 -6 -6 -6 -5 -6
4 6 3 1 1 2 1 -0 -1 -2 -2 -2 -2 -1 -1 -2 -1 -2 -2 -2 -3 -3 -3 -3 -2 -2 -3 -3 -2 -3 -4 -4 -4 -1 -2 -3 -5 -5 -6 -6 -5 -6 -6 -6 -7
1 0 -2 2 1 1 0 -1 -1 -2 -2 -2 -2 -2 -4 -4 -2 -2 -2 -2 -2 -3 -3 -3 -4 -2 -3 -3 -3 -4 -4 -4 -5 -6 -3 -5 -5 -6 -6 -6 -6 -6 -6 -6 -6
-0 -2 -1 0 -1 1 -1 -1 -2 -2 -2 -3 -3 -3 -3 -4 -5 -6 -4 -3 -4 -2 -3 -3 -3 -3 -4 -3 -3 -4 -3 -3 -4 -5 -5 -5 -5 -6 -6 -6 -6 -6 -6 -6 -6
-3 -4 -3 -1 0 0 -1 -1 -2 -2 -3 -3 -3 -3 -3 -4 -5 -5 -4 -4 -4 -5 -4 -5 -4 -3 -3 -3 -3 -3 -4 -4 -5 -5 -6 -5 -5 -5 -5 -5 -6 -7 -7 -7 -7
Height
1488 1486 1483 1479 1474 1471 1468 1466 1464 1462 1460 1459 1457 1455 1454 1453 1453 1453 1453 1453 1454 1453 1454 1455 1455 1457 1460 1462 1463 1464 1454 1444 1441 1440 1435 1440 1442 1452 1457 1459 1464 1464 1463 1465 1466
1487 1484 1480 1476 1473 1469 1467 1464 1461 1459 1457 1455 1454 1452 1452 1451 1451 1451 1450 1449 1449 1450 1452 1454 1455 1456 1457 1458 1460 1457 1449 1441 1438 1435 1433 1442 1447 1450 1458 1458 1462 1463 1462 1464 1465
1485 1482 1477 1474 1470 1467 1464 1461 1458 1456 1454 1452 1450 1450 1449 1450 1451 1447 1445 1446 1447 1448 1449 1452 1454 1455 1454 1453 1453 1450 1445 1440 1441 1445 1447 1447 1452 1453 1454 1450 1454 1459 1460 1462 1464
1483 1479 1475 1470 1466 1463 1459 1457 1454 1453 1450 1449 1448 1448 1448 1449 1447 1443 1444 1445 1445 1446 1447 1449 1452 1453 1450 1447 1448 1447 1443 1444 1447 1451 1451 1450 1452 1453 1453 1451 1452 1456 1456 1460 1463
1480 1476 1472 1467 1463 1459 1455 1452 1450 1449 1448 1447 1447 1447 1448 1449 1447 1444 1444 1443 1443 1444 1446 1448 1449 1449 1444 1442 1444 1443 1443 1447 1448 1453 1453 1453 1454 1454 1452 1453 1453 1456 1457 1459 1464
1479 1474 1469 1466 1462 1457 1453 1449 1447 1446 1446 1445 1445 1445 1448 1448 1445 1444 1443 1443 1444 1444 1445 1446 1447 1447 1446 1441 1442 1442 1441 1442 1450 1450 1451 1452 1452 1455 1449 1451 1455 1456 1459 1461 1465
1477 1472 1468 1464 1460 1456 1452 1449 1446 1444 1444 1444 1443 1444 1446 1445 1443 1443 1443 1442 1442 1444 1445 1445 1445 1447 1443 1442 1445 1444 1444 1444 1445 1447 1447 1451 1448 1450 1451 1451 1455 1457 1459 1462 1466
1475 1472 1468 1463 1458 1454 1451 1447 1444 1443 1442 1442 1443 1445 1443 1443 1443 1443 1443 1442 1442 1442 1443 1443 1443 1446 1445 1444 1444 1443 1442 1437 1431 1444 1447 1449 1436 1445 1450 1451 1452 1455 1459 1462 1466
1475 1471 1467 1462 1457 1453 1450 1446 1444 1443 1443 1443 1445 1445 1443 1444 1444 1443 1442 1443 1442 1442 1443 1443 1445 1444 1446 1442 1439 1436 1427 1426 1435 1442 1441 1445 1434 1446 1450 1452 1452 1455 1459 1463 1466
1475 1471 1466 1461 1456 1453 1449 1446 1445 1444 1444 1444 1445 1448 1445 1445 1444 1442 1442 1442 1443 1443 1444 1444 1443 1439 1438 1436 1433 1426 1427 1422 1424 1439 1444 1439 1439 1442 1449 1452 1456 1457 1460 1462 1465
1474 1470 1465 1460 1456 1452 1449 1447 1450 1448 1447 1447 1447 1446 1445 1445 1443 1444 1442 1442 1443 1443 1438 1440 1437 1431 1428 1430 1436 1438 1434 1430 1429 1444 1442 1434 1435 1436 1443 1451 1453 1458 1460 1461 1464
1474 1470 1465 1460 1456 1452 1450 1448 1447 1449 1447 1446 1446 1446 1446 1445 1444 1445 1443 1443 1440 1435 1438 1439 1432 1439 1440 1440 1441 1439 1435 1431 1434 1445 1445 1435 1440 1441 1449 1457 1459 1460 1460 1462 1463
1473 1468 1464 1460 1455 1452 1449 1448 1446 1446 1445 1447 1447 1447 1447 1447 1446 1445 1444 1442 1437 1434 1435 1431 1442 1444 1443 1442 1442 1440 1439 1432 1434 1444 1444 1442 1432 1433 1456 1460 1462 1463 1464 1464 1464
1471 1467 1464 1460 1457 1452 1449 1447 1446 1446 1438 1447 1447 1448 1448 1446 1446 1447 1445 1445 1439 1435 1438 1439 1446 1445 1443 1444 1448 1436 1448 1449 1447 1445 1435 1447 1422 1435 1449 1456 1464 1468 1467 1466 1465
1469 1465 1462 1458 1456 1453 1451 1447 1446 1448 1434 1450 1450 1451 1449 1448 1450 1447 1447 1443 1441 1442 1442 1446 1447 1446 1444 1454 1454 1450 1452 1450 1454 1450 1449 1438 1439 1439 1446 1455 1466 1469 1469 1468 1466
1467 1464 1461 1457 1453 1451 1447 1446 1448 1443 1442 1450 1452 1452 1448 1449 1449 1448 1448 1447 1447 1443 1445 1450 1455 1456 1456 1457 1456 1455 1452 1453 1453 1451 1446 1425 1430 1450 1461 1474 1471 1471 1469 1467 1465
1464 1462 1460 1455 1453 1449 1446 1447 1440 1441 1455 1458 1458 1455 1452 1452 1450 1451 1453 1456 1455 1447 1438 1448 1455 1459 1460 1453 1456 1457 1452 1440 1444 1447 1423 1451 1448 1469 1474 1476 1475 1474 1470 1467 1464
1466 1464 1459 1456 1453 1447 1445 1444 1448 1460 1463 1464 1461 1455 1456 1457 1453 1455 1453 1454 1461 1458 1447 1441 1447 1462 1465 1463 1458 1454 1455 1433 1417 1417 1429 1454 1440 1469 1476 1476 1476 1475 1473 1469 1464
1467 1464 1462 1457 1453 1449 1448 1453 1471 1475 1475 1470 1459 1455 1453 1456 1458 1454 1465 1468 1467 1466 1462 1452 1451 1466 1467 1467 1467 1459 1454 1461 1445 1449 1432 1442 1470 1474 1476 1477 1476 1476 1473 1470 1467
1467 1466 1464 1459 1455 1452 1453 1471 1479 1482 1479 1473 1465 1463 1459 1459 1458 1457 1466 1473 1471 1470 1468 1464 1454 1461 1466 1467 1466 1463 1465 1451 1449 1437 1426 1442 1448 1468 1480 1480 1479 1478 1476 1473 1470
1469 1467 1467 1461 1459 1458 1464 1477 1481 1483 1481 1477 1471 1467 1466 1468 1464 1465 1473 1476 1475 1472 1469 1464 1465 1462 1462 1469 1469 1459 1455 1457 1458 1445 1432 1423 1464 1484 1485 1485 1484 1482 1479 1477 1474
1471 1469 1469 1463 1464 1469 1477 1482 1486 1484 1482 1480 1478 1475 1474 1472 1469 1470 1472 1476 1478 1474 1468 1466 1464 1456 1472 1478 1478 1475 1468 1464 1453 1449 1445 1447 1474 1489 1488 1488 1487 1485 1482 1479 1477
1476 1475 1472 1466 1468 1475 1484 1486 1488 1486 1486 1483 1482 1482 1480 1478 1475 1473 1474 1479 1479 1475 1473 1470 1465 1459 1469 1476 1475 1470 1475 1475 1473 1467 1453 1453 1476 1489 1490 1489 1488 1486 1483 1480 1479
1480 1475 1478 1477 1484 1481 1483 1486 1487 1489 1488 1487 1485 1483 1481 1478 1478 1478 1478 1479 1480 1478 1476 1474 1468 1466 1464 1470 1466 1471 1476 1477 1476 1459 1464 1466 1482 1487 1489 1490 1488 1487 1485 1483 1482
1485 1490 1490 1483 1484 1486 1487 1488 1487 1488 1489 1489 1485 1486 1488 1485 1478 1478 1480 1478 1480 1479 1477 1476 1475 1469 1471 1472 1472 1477 1476 1477 1479 1483 1472 1483 1480 1488 1490 1490 1489 1487 1485 1483 1482
1496 1497 1493 1490 1490 1487 1490 1490 1491 1490 1491 1489 1489 1488 1487 1488 1489 1490 1487 1483 1483 1480 1478 1478 1473 1473 1476 1474 1472 1475 1475 1474 1479 1482 1483 1482 1481 1488 1489 1488 1487 1486 1484 1482 1481
1502 1500 1498 1493 1490 1488 1490 1491 1492 1492 1493 1492 1492 1490 1487 1489 1490 1488 1487 1487 1487 1486 1482 1482 1477 1473 1465 1473 1473 1470 1474 1478 1480 1483 1484 1480 1485 1486 1486 1486 1486 1484 1483 1480 1479
Wind_Speed
17 18 19 21 20 20 20 17 15 15 14 13 12 12 12 9 7 7 8 9 10 12 9 7 6 8 9 10 12 11 11 18 22 21 16 4 11 9 7 5 8 11 6 8 16
20 22 22 22 23 22 21 20 16 15 13 13 11 10 10 8 7 10 12 12 12 10 6 8 9 11 9 13 10 12 13 20 16 15 11 11 11 16 9 12 10 6 11 10 18
24 24 25 24 24 25 22 21 19 15 12 12 10 9 8 5 7 5 14 12 9 7 8 8 9 13 14 12 16 12 20 12 12 7 6 6 8 6 10 14 14 14 16 18 19
25 26 25 25 25 23 22 20 18 14 12 11 9 8 5 3 4 5 7 6 6 6 8 8 10 13 9 14 18 12 14 19 4 1 2 7 8 9 15 1 1 2 18 21 21
25 25 25 23 22 22 21 19 16 12 10 9 8 5 2 6 5 5 5 5 5 6 10 10 13 15 11 12 16 17 15 5 11 5 5 3 9 12 10 7 1 5 13 18 18
23 23 22 22 23 22 19 17 13 9 8 7 6 3 3 7 4 3 4 4 4 6 8 11 6 13 8 9 10 3 15 12 8 10 6 5 10 4 8 6 5 9 12 14 16
24 21 23 22 21 18 17 16 12 8 7 5 3 3 5 2 3 2 4 3 6 5 6 8 8 9 6 5 7 5 7 8 12 12 6 5 14 11 6 7 8 9 11 12 14
22 22 22 22 19 15 18 16 12 8 5 2 2 2 2 4 3 3 4 1 3 5 4 6 8 6 5 2 4 6 8 12 8 10 6 8 13 7 3 6 9 9 9 10 12
20 21 22 24 17 17 17 13 8 3 2 3 2 2 2 1 1 3 3 1 2 3 3 4 5 5 5 6 7 9 9 15 9 8 4 11 7 7 4 3 8 7 8 10 11
19 21 22 22 15 19 14 8 5 5 4 3 1 4 1 1 2 3 4 3 2 5 4 5 6 7 8 9 8 10 13 10 10 7 6 10 13 8 8 4 4 5 7 8 11
19 20 24 22 14 19 13 5 2 2 3 3 4 2 4 5 2 4 4 2 3 7 8 8 7 9 12 11 2 3 2 5 2 4 3 11 12 8 3 5 4 3 6 8 10
16 20 24 22 13 20 12 2 1 2 1 4 3 3 3 7 2 7 6 3 6 8 3 5 9 6 3 1 3 6 9 11 3 2 3 7 7 7 10 8 6 7 3 4 7
19 17 21 23 13 22 13 7 1 4 4 3 4 6 3 7 4 8 9 4 5 4 4 8 5 3 0 3 4 5 8 9 5 2 6 6 11 12 10 15 14 12 9 5 4
21 17 17 25 10 17 9 9 0 3 5 4 3 5 7 4 2 8 10 3 2 3 2 3 3 1 2 2 3 7 3 2 3 4 5 1 2 7 8 9 15 16 14 10 7
22 15 16 20 15 10 13 5 0 1 4 5 4 7 6 5 7 7 10 3 5 3 3 4 3 3 2 4 4 4 1 1 1 5 4 8 4 8 7 5 14 16 17 14 11
22 12 17 23 14 18 12 1 1 4 2 4 4 10 9 8 6 5 7 8 3 2 9 5 4 4 3 1 2 5 3 3 2 2 5 12 9 4 4 8 13 17 19 17 13
18 9 23 24 16 18 8 1 4 3 7 6 8 10 3 8 7 8 9 12 7 3 4 5 4 3 5 3 4 2 5 4 6 5 3 2 4 6 6 8 11 13 19 19 16
13 10 27 23 21 15 4 5 5 4 6 10 11 10 4 10 5 8 1 4 11 8 4 4 4 4 5 4 3 3 3 4 4 2 5 3 4 5 5 10 13 16 17 19 19
9 12 27 21 21 12 6 6 5 7 8 11 13 6 0 5 7 2 8 5 7 11 6 4 4 3 3 2 3 3 4 2 5 2 3 7 5 5 6 10 15 19 21 23 21
7 4 29 19 17 10 6 5 3 8 9 9 6 4 9 9 8 7 5 7 7 9 8 2 3 1 3 2 1 2 2 3 3 4 5 3 6 6 9 11 12 16 20 22 22
9 2 24 13 12 12 5 4 3 9 8 7 6 6 7 6 8 4 5 4 10 9 7 4 2 5 4 5 5 0 2 2 3 3 3 2 5 5 7 9 11 14 17 18 21
7 2 23 12 8 6 6 4 3 8 7 4 4 6 6 6 5 2 3 6 12 7 4 3 4 3 6 1 1 1 5 4 3 1 1 3 5 5 7 9 12 14 16 16 16
4 4 12 13 5 6 7 5 6 7 9 6 6 6 4 5 2 3 3 3 12 8 6 5 1 3 4 2 3 0 5 4 4 3 4 4 5 4 6 8 12 15 16 15 13
5 3 8 15 10 5 3 5 2 5 7 3 6 3 4 4 3 2 3 2 6 10 6 3 3 5 6 6 4 3 5 3 3 3 2 5 8 4 6 8 11 14 14 11 11
10 4 4 4 7 7 3 2 4 3 3 8 1 5 4 4 3 2 5 3 1 10 4 3 1 3 3 4 4 4 3 3 3 2 3 2 3 4 3 5 8 11 14 11 7
8 7 6 3 3 2 2 2 4 3 4 3 4 5 3 3 2 3 6 5 4 5 4 3 2 2 2 2 3 2 3 4 3 3 1 2 3 3 2 5 10 13 17 13 8
14 6 4 2 2 3 2 1 2 3 1 2 4 4 3 4 6 7 6 5 4 5 6 3 2 2 3 1 5 7 5 2 1 1 2 3 4 1 5 10 14 18 16 15 9
Wind_Direction
353 350 344 343 342 338 334 329 318 310 303 301 299 296 295 291 270 260 228 218 210 231 231 240 235 204 185 209 217 224 236 241 245 247 250 256 208 186 250 137 181 189 193 191 189
352 345 341 337 332 330 327 326 319 307 298 296 296 292 288 287 272 247 233 221 222 232 222 220 204 184 190 201 205 215 232 245 269 278 246 208 220 204 215 199 211 201 213 196 186
343 337 332 330 326 322 316 313 311 303 291 291 293 290 287 279 285 218 230 214 226 229 208 213 210 195 218 215 209 218 241 248 249 295 343 270 229 221 228 224 228 221 202 190 187
338 335 332 329 325 318 310 307 305 302 286 290 290 288 272 205 269 204 192 211 234 225 198 188 192 196 218 211 222 246 239 246 283 303 268 237 255 217 235 269 219 203 211 196 190
339 338 337 334 334 330 322 310 302 296 282 286 286 278 212 232 250 226 245 260 251 216 196 198 204 213 221 225 234 225 249 201 243 229 230 245 240 240 244 219 225 141 180 188 188
343 343 346 347 342 338 337 338 324 298 283 281 280 236 220 251 247 258 279 273 223 213 213 204 216 223 281 232 228 331 240 221 210 213 213 233 239 216 223 175 175 165 176 183 187
348 353 348 344 343 345 349 343 331 310 291 274 247 170 236 279 216 294 324 262 222 213 222 215 222 204 220 213 228 232 234 208 224 214 207 209 243 224 198 173 192 182 178 181 188
355 353 353 351 347 346 342 333 323 305 278 236 160 193 292 238 264 343 340 315 231 213 200 209 197 215 251 120 189 218 232 231 173 185 177 200 257 94 147 197 196 185 178 182 186
357 357 357 357 358 350 344 344 355 28 104 112 82 226 131 318 353 295 335 234 166 166 178 170 166 210 179 209 215 208 245 216 166 196 188 205 245 99 109 194 201 191 188 184 185
0 0 359 356 357 357 354 355 21 51 62 54 24 253 74 354 304 333 337 174 198 170 162 189 205 212 215 207 218 243 218 249 251 138 205 211 240 148 115 128 202 207 200 196 195
6 4 359 353 350 356 357 353 280 167 25 32 0 342 38 348 32 352 337 236 192 220 224 200 224 216 226 222 284 290 316 273 80 59 278 233 244 252 149 183 183 181 233 211 205
357 2 5 358 359 -0 5 26 292 203 158 42 24 43 19 6 290 13 2 261 214 240 187 200 234 46 60 86 226 240 243 246 166 118 263 275 265 256 44 41 38 18 307 257 216
347 345 1 5 351 358 9 15 26 161 264 78 67 34 345 358 35 1 7 306 295 240 239 267 53 45 266 179 214 227 255 268 262 156 240 275 260 193 98 76 64 47 24 356 269
348 336 344 359 356 347 346 351 42 170 232 53 34 24 352 329 107 16 2 336 203 330 337 29 51 245 211 120 318 243 48 315 262 241 254 188 215 144 141 134 44 19 6 350 326
347 341 343 354 344 346 334 338 141 123 253 33 29 -0 348 45 351 37 13 319 6 27 265 76 28 14 163 29 328 50 75 133 201 233 306 195 253 121 170 34 1 7 359 349 329
349 355 3 357 355 345 343 346 135 233 95 20 42 356 355 27 28 352 15 35 46 257 64 78 66 40 30 39 53 127 152 130 164 204 237 222 215 89 21 354 350 354 357 352 341
354 17 4 5 357 345 348 125 235 4 11 2 340 337 321 352 28 21 55 52 30 318 203 145 50 88 14 226 148 197 188 194 199 195 251 111 201 63 41 13 12 358 358 359 354
11 37 12 6 357 356 6 237 51 12 4 346 332 311 30 7 36 23 21 33 28 357 300 290 189 0 357 22 354 191 282 287 280 184 122 153 206 85 61 45 29 20 15 12 9
13 32 5 6 359 9 293 47 23 5 344 331 317 323 57 23 314 344 65 27 21 26 342 335 133 130 40 348 321 124 224 16 301 160 281 131 105 118 49 28 20 17 16 12 10
21 12 2 358 16 22 53 82 75 6 328 319 327 16 330 357 338 13 21 34 349 0 341 23 279 88 115 268 149 303 3 233 205 251 226 109 142 75 23 12 8 7 7 6 9
24 329 353 10 33 52 56 63 58 9 350 340 340 315 333 358 326 9 18 79 2 335 310 286 258 132 177 27 9 304 201 246 292 292 307 202 97 26 26 17 6 4 2 1 10
20 18 359 57 40 50 46 13 350 8 6 10 339 336 336 356 350 49 45 27 0 316 341 24 314 281 44 74 335 330 355 300 279 164 236 298 108 43 37 30 17 8 3 3 22
21 357 1 50 40 75 92 89 42 21 13 3 11 7 348 360 300 11 28 34 14 360 14 356 184 224 153 178 181 46 27 336 304 285 286 316 106 91 54 41 23 12 7 7 34
0 347 23 49 47 65 99 51 64 40 33 8 4 344 338 2 27 359 359 19 347 7 357 301 358 323 358 24 7 108 16 10 304 282 2 48 130 96 44 19 8 2 0 4 18
23 45 6 5 31 45 48 23 23 17 19 13 31 28 19 344 329 13 7 333 173 10 27 7 52 329 51 37 71 125 79 62 73 21 332 47 102 107 37 349 340 341 340 335 334
25 356 349 27 0 345 358 41 13 12 352 14 10 350 346 0 334 306 359 22 33 341 26 350 147 121 96 109 103 86 58 89 103 36 81 331 198 137 293 313 331 328 327 316 286
0 338 320 13 349 300 44 41 17 321 156 347 335 314 319 350 308 285 274 279 321 350 359 11 347 253 129 206 286 257 179 136 192 181 251 283 65 188 342 338 336 322 311 307 284